Terminal Aerodrome Forecast
Issued by NWS Cleveland, OH

Home | Current Version | Previous Version | Text Only | Print | Product List | Glossary On
Versions: 1 2 3 4 5 6 7 8 9 10 11 12 13 14 15 16 17 18 19 20 21 22 23 24 25 26 27 28 29 30 31
383
FTUS41 KCLE 201503 AAC
TAFTOL
TAF AMD
KTOL 201503Z 2015/2112 00000KT 4SM BR OVC045
      TEMPO 2015/2016 3SM BR OVC003
     FM201600 21005KT P6SM BKN040
     FM202300 11003KT P6SM SCT045
     FM210700 VRB03KT 4SM BR SKC=

USA.gov is the U.S. government's official web portal to all federal, state and local government web resources and services.